Regional Weather Roundup
Issued by NWS

Home | Current Version | Previous Version | Text Only | Print | Product List | Glossary On
Versions: 1 2 3 4 5 6 7 8 9 10 11 12 13 14 15 16 17 18 19 20 21 22 23 24 25 26 27 28 29 30 31 32 33 34 35 36 37 38 39 40 41 42 43 44 45 46 47 48 49 50
000
ASUS43 KMPX 231810
RWRMN
WEATHER ROUNDUP FOR MINNESOTA
NATIONAL WEATHER SERVICE TWIN CITIES/CHANHASSEN MN
100 PM CDT TUE MAY 23 2017


NOTE: "FAIR" INDICATES FEW OR NO CLOUDS BELOW 12,000 FEET WITH NO
SIGNIFICANT WEATHER AND/OR OBSTRUCTIONS TO VISIBILITY. N/A MEANS
CURRENT SKY AND/OR WEATHER CONDITIONS ARE NOT AVAILABLE.

MNZ060>063-068>070-231900-
   Twin Cities Metro

CITY           SKY/WX    TMP DP  RH WIND       PRES   REMARKS
TWIN CITIES    CLOUDY    59  42  53 N10       29.81F
6HR MIN TEMP:  51; 6HR MAX TEMP:  61;

ST PAUL        CLOUDY    59  45  59 MISG      29.82F
CRYSTAL        CLOUDY    56  43  61 N12       29.80F
BLAINE         CLOUDY    63  43  48 NE12G17   29.81F
LAKEVILLE      PTSUNNY   55  46  71 NE7       29.81S
EDEN PRAIRIE   CLOUDY    58  50  75 N12       29.80F
6HR MIN TEMP:  50; 6HR MAX TEMP:  58; 6HR PCP:  0.01;

SOUTH ST PAUL  CLOUDY    59  43  55 NE9       29.80F
LAKE ELMO      PTSUNNY   57  48  72 E8        29.82F
$$
MNZ001>005-007-008-013>017-022>024-027-028-231900-
   Northwest Minnesota

CITY           SKY/WX    TMP DP  RH WIND       PRES   REMARKS
BEMIDJI        CLOUDY    48  44  85 NE10      29.94S
HALLOCK        PTSUNNY   63  39  42 NE18G26   30.01F
ROSEAU         MOSUNNY   57  45  62 NE25G31   30.00F
WARROAD        MOSUNNY   57  46  67 NE17      30.01F
THIEF RVR FALL CLOUDY    54  43  66 NE20G26   29.99F
CROOKSTON      CLOUDY    54  45  71 NE12G21   29.99F
FOSSTON        CLOUDY    48  48 100 N15G21    29.97S
DETROIT LAKES  CLOUDY    52  46  82 NE15      29.93S
MOORHEAD       CLOUDY    54  46  76 N17       29.96S
PARK RAPIDS    LGT RAIN  53  42  66 N13G18    29.90S
MAHNOMEN       CLOUDY    49  45  87 N18       29.95S
$$
MNZ006-009>011-018-025>026-231900-
   North Central Minnesota

CITY           SKY/WX    TMP DP  RH WIND       PRES   REMARKS
BAUDETTE       CLOUDY    53  43  68 NE14      29.98F
FLAG ISLAND    PTSUNNY   55  37  50 NE16G25   30.00F
INTL FALLS     CLOUDY    51  43  74 NE8       29.96S
6HR MIN TEMP:  45; 6HR MAX TEMP:  52; 6HR PCP:  0.03;

WASKISH        CLOUDY    50  45  81 NE10G17   29.97R
BIG FORK       CLOUDY    52  46  82 N8        29.93S
LONGVILLE      CLOUDY    55  43  62 N5        29.90S
GRAND RAPIDS   LGT RAIN  52  46  80 NE6       29.91S
CRANE LAKE     CLOUDY    50  45  81 NE5       29.95S
ORR            CLOUDY    52  43  71 N5        29.90F
COOK           CLOUDY    48  46  93 NE7       29.92F FOG
WALKER         RAIN      48  47  94 N10       29.91S
$$
MNZ012-019>021-037-231900-
   Northeast Minnesota

CITY           SKY/WX    TMP DP  RH WIND       PRES   REMARKS
DULUTH         CLOUDY    53  46  77 NE8       29.87F
6HR MIN TEMP:  47; 6HR MAX TEMP:  53;

ELY            DRIZZLE   48  46  93 N8        29.91S
HIBBING        CLOUDY    54  46  74 NE10      29.88F
EVELETH        PTSUNNY   55  43  63 N10G16    29.89F
DULUTH HARBOR  PTSUNNY   48  45  87 NE15      29.89F
TWO HARBORS    CLOUDY    52  46  82 E8        29.88S
SILVER BAY     CLOUDY    48  46  93 NE6       29.88F
GRAND MARAIS     N/A     46  45  96 NE7       29.90F
G MARAIS ARPRT CLOUDY    46  43  87 N8        29.90S FOG
$$
MNZ029>031-032-039>041-046>048-054>057-064-231900-
   West Central Minnesota

CITY           SKY/WX    TMP DP  RH WIND       PRES   REMARKS
FERGUS FALLS   MOSUNNY   54  48  82 N12G18    29.89F
WHEATON        MOSUNNY   54  48  82 NW21G26   29.92S
MORRIS         PTSUNNY   55  48  76 NE13      29.87F
ALEXANDRIA     CLOUDY    53  45  74 N10       29.88S
ELBOW LAKE     CLOUDY    54  44  68 NE12      29.90R
WADENA         CLOUDY    54  45  71 N12       29.89S
GLENWOOD       CLOUDY    54  46  76 NE12      29.87F
APPLETON       LGT RAIN  54  48  82 N12       29.87S
BENSON         CLOUDY    54  45  71 E10       29.88S
ORTONVILLE     HVY RAIN  50  46  87 N16G28    29.89S
MADISON        HVY RAIN  54  52  94 N14       29.88S
WILLMAR        FAIR      55  46  71 NE9       29.87S
$$
MNZ033>034-036-042>043-049>051-058-059-231900-
   Central Minnesota

CITY           SKY/WX    TMP DP  RH WIND       PRES   REMARKS
ST CLOUD       CLOUDY    56  46  69 VRB7      29.84F
6HR MIN TEMP:  46; 6HR MAX TEMP:  56;

SAUK CENTRE    CLOUDY    52  44  73 NE7       29.87F
PAYNESVILLE    CLOUDY    53  46  76 N6        29.86F
AITKIN         CLOUDY    55  45  67 N10       29.86F
PINE RIVER     CLOUDY    54  43  66 NE8       29.92F
BRAINERD       CLOUDY    56  43  61 N10       29.88S
STAPLES        CLOUDY    54  43  66 NE10      29.88S
LONG PRAIRIE   CLOUDY    52  43  71 N9        29.88S
LITTLE FALLS   CLOUDY    54  43  66 N5        29.86F
LITCHFIELD     CLOUDY    55  48  76 N5        29.85F
BUFFALO        CLOUDY    55  46  69 NW7       29.84F
MAPLE LAKE     CLOUDY    55  48  75 N5        29.84F
HUTCHINSON     CLOUDY    54  47  78 N7G16     29.84F
$$
MNZ037-044-045-052-053-231900-
   East Central Minnesota

CITY           SKY/WX    TMP DP  RH WIND       PRES   REMARKS
PRINCETON      PTSUNNY   59  46  63 NE9       29.83F
MORA           LGT RAIN  54  43  66 CALM      29.86S
CAMBRIDGE      PTSUNNY   61  45  55 NE6       29.81F
RUSH CITY      CLOUDY    57  44  61 N6        29.83F
MOOSE LAKE     CLOUDY    55  43  62 NE8       29.85S
HINCKLEY       CLOUDY    55  46  71 N14G20    29.84S
CLOQUET        CLOUDY    54  43  66 E7        29.87F
MCGREGOR       CLOUDY    54  45  71 N8        29.88F
$$
MNZ071>073-080-081-089-090-097-098-231900-
   Southwest Minnesota

CITY           SKY/WX    TMP DP  RH WIND       PRES   REMARKS
MONTEVIDEO     CLOUDY    54  48  82 N8        29.86F
CANBY          CLOUDY    52  47  85 N15G21    29.88F
MARSHALL       LGT RAIN  49  47  93 N13       29.87S
REDWOOD FALLS  CLOUDY    53  43  68 NE10      29.84F
OLIVIA         CLOUDY    54  46  76 N12G17    29.84S
PIPESTONE      CLOUDY    52  41  66 N10G20    29.86F
WINDOM         CLOUDY    52  45  76 N13       29.84S
WORTHINGTON    LGT RAIN  50  45  83 N17       29.85F
JACKSON        CLOUDY    52  45  76 N16       29.83F
TRACY          CLOUDY    52  49  92 N14G20    29.86S
SLAYTON        CLOUDY    49  46  88 N14       29.86F
$$
MNZ065>067-074>077-082>085-091>093-231900-
   South Central Minnesota

CITY           SKY/WX    TMP DP  RH WIND       PRES   REMARKS
MANKATO        CLOUDY    53  47  79 N9        29.82F
NEW ULM        CLOUDY    52  45  76 N6        29.83F
ST JAMES       RAIN      50  46  87 N10       29.84S
FAIRMONT       CLOUDY    52  45  77 N13       29.82F
GLENCOE        CLOUDY    55  50  85 N9        29.82F
FARIBAULT      LGT RAIN  54  48  82 N6        29.81S
OWATONNA       CLOUDY    55  46  71 N8        29.80F
WASECA         CLOUDY    52  46  82 N6        29.81F
ALBERT LEA     CLOUDY    55  46  71 N3        29.79S
$$
MNZ078>079-086>088-094>096-231900-
   Southeast Minnesota

CITY           SKY/WX    TMP DP  RH WIND       PRES   REMARKS
ROCHESTER      LGT RAIN  50  48  93 N13       29.79F
6HR MIN TEMP:  50; 6HR MAX TEMP:  51; 6HR PCP:  0.17;

RED WING       LGT RAIN  54  46  76 NE7       29.80S
STANTON        DRIZZLE   56  47  72 NE8       29.79F
DODGE CENTER   LGT RAIN  52  46  82 NE10      29.79F
WINONA         CLOUDY    54  50  87 NW6       29.77S
AUSTIN         CLOUDY    50  45  81 CALM      29.78S
PRESTON        LGT RAIN  50  47  90 N10       29.77F
$$
ABBREVIATIONS USED IN REMARKS
   TC - TEMPERATURES IN CELSIUS
  WCI - WIND CHILL INDEX
   HX - HEAT INDEX
  VSB - VISIBILITY
$$



USA.gov is the U.S. government's official web portal to all federal, state and local government web resources and services.